Retour au catalogue

STARLINK-6184

ActifCommunicationsVLEO
NORAD 57081·PAYLOAD·🇺🇸 United States

Lancé Jun 22, 2023 depuis Vandenberg Space Force Base

Loading…

Prochains Passages (prochaines 24 heures)

TLE

FraisSource: CelesTrak SupGP

Époque: Sep 14, 2026, 20:49 UTC

1 57081C 23088AK  26257.86784722 -.00042605  00000+0 -15428-2 0  2575
2 57081  42.9998 107.6056 0001171 235.2848 150.7936 15.27606338    14

Suivez STARLINK-6184 en temps réel avec AllMySat

Download on the App Store